TimeCST,TemperatureF,Dew PointF,Humidity,Sea Level PressureIn,VisibilityMPH,Wind Direction,Wind SpeedMPH,Gust SpeedMPH,PrecipitationIn,Events,Conditions,WindDirDegrees,DateUTC
12:15 AM,46.4,44.6,93,30.16,3.0,North,23.0,-,N/A,,Overcast,10,2014-01-29 06:15:00
12:35 AM,46.4,44.6,93,30.17,6.0,North,20.7,29.9,N/A,,Overcast,10,2014-01-29 06:35:00
12:55 AM,46.4,44.6,93,30.17,7.0,North,21.9,29.9,N/A,,Overcast,10,2014-01-29 06:55:00
1:15 AM,46.4,44.6,93,30.17,8.0,NNE,29.9,-,N/A,,Overcast,20,2014-01-29 07:15:00
1:35 AM,46.4,42.8,87,30.18,7.0,North,17.3,29.9,N/A,,Overcast,360,2014-01-29 07:35:00
1:55 AM,46.4,42.8,87,30.16,6.0,North,25.3,32.2,N/A,,Overcast,10,2014-01-29 07:55:00
2:15 AM,46.4,42.8,87,30.16,6.0,North,20.7,31.1,N/A,,Overcast,10,2014-01-29 08:15:00
2:35 AM,46.4,42.8,87,30.15,3.0,NNE,27.6,-,N/A,,Overcast,20,2014-01-29 08:35:00
2:55 AM,46.4,42.8,87,30.15,6.0,NNE,26.5,32.2,N/A,,Overcast,20,2014-01-29 08:55:00
3:15 AM,46.4,42.8,87,30.17,3.0,North,16.1,27.6,N/A,,Overcast,360,2014-01-29 09:15:00
3:35 AM,46.4,42.8,87,30.18,2.5,North,24.2,31.1,N/A,,Overcast,10,2014-01-29 09:35:00
3:55 AM,46.4,42.8,87,30.17,4.0,North,24.2,35.7,N/A,,Overcast,10,2014-01-29 09:55:00
4:15 AM,46.4,41.0,81,30.18,6.0,North,21.9,31.1,N/A,,Overcast,10,2014-01-29 10:15:00
4:35 AM,44.6,41.0,87,30.19,6.0,NNE,24.2,34.5,N/A,,Overcast,20,2014-01-29 10:35:00
4:55 AM,44.6,41.0,87,30.19,7.0,North,21.9,33.4,N/A,,Overcast,10,2014-01-29 10:55:00
5:15 AM,44.6,41.0,87,30.20,9.0,North,27.6,-,N/A,,Overcast,10,2014-01-29 11:15:00
5:35 AM,44.6,39.2,81,30.20,8.0,North,24.2,39.1,N/A,,Overcast,10,2014-01-29 11:35:00
5:55 AM,44.6,39.2,81,30.20,5.0,North,26.5,35.7,N/A,,Haze,10,2014-01-29 11:55:00
6:15 AM,42.8,37.4,81,30.22,9.0,NNE,29.9,35.7,N/A,,Overcast,20,2014-01-29 12:15:00
6:35 AM,42.8,37.4,81,30.22,10.0,NNE,26.5,34.5,N/A,,Overcast,30,2014-01-29 12:35:00
6:55 AM,42.8,37.4,81,30.25,10.0,North,24.2,34.5,N/A,,Overcast,10,2014-01-29 12:55:00
7:15 AM,42.8,35.6,76,30.24,9.0,NNE,27.6,35.7,N/A,,Overcast,30,2014-01-29 13:15:00
7:35 AM,42.8,37.4,81,30.26,8.0,NNE,27.6,34.5,N/A,,Overcast,20,2014-01-29 13:35:00
7:55 AM,42.8,37.4,81,30.28,3.0,NNE,27.6,33.4,N/A,,Haze,30,2014-01-29 13:55:00
8:15 AM,42.8,35.6,76,30.27,3.0,NNE,28.8,34.5,N/A,,Haze,20,2014-01-29 14:15:00
8:35 AM,42.8,35.6,76,30.28,4.0,North,25.3,34.5,N/A,,Haze,10,2014-01-29 14:35:00
8:55 AM,42.8,37.4,81,30.31,3.0,North,23.0,34.5,N/A,,Haze,10,2014-01-29 14:55:00
9:15 AM,42.8,37.4,81,30.32,3.0,North,23.0,29.9,N/A,,Haze,10,2014-01-29 15:15:00
9:35 AM,41.0,35.6,81,30.31,3.0,North,25.3,34.5,N/A,,Haze,10,2014-01-29 15:35:00
9:55 AM,41.0,35.6,81,30.31,4.0,NNE,27.6,-,N/A,,Haze,20,2014-01-29 15:55:00
10:15 AM,41.0,35.6,81,30.30,3.0,NNE,26.5,33.4,N/A,,Haze,20,2014-01-29 16:15:00
10:35 AM,41.0,33.8,76,30.29,7.0,NNE,25.3,35.7,N/A,,Mostly Cloudy,30,2014-01-29 16:35:00
10:55 AM,42.8,35.6,76,30.31,7.0,North,20.7,31.1,N/A,,Mostly Cloudy,10,2014-01-29 16:55:00
11:15 AM,42.8,37.4,81,30.31,5.0,North,24.2,33.4,N/A,,Haze,10,2014-01-29 17:15:00
11:35 AM,42.8,37.4,81,30.28,2.0,North,24.2,33.4,N/A,,Haze,10,2014-01-29 17:35:00
11:55 AM,41.0,35.6,81,30.29,4.0,NNE,24.2,31.1,N/A,,Haze,20,2014-01-29 17:55:00
12:15 PM,41.0,35.6,81,30.29,7.0,NNE,25.3,-,N/A,,Mostly Cloudy,30,2014-01-29 18:15:00
12:35 PM,42.8,33.8,70,30.27,7.0,NNE,19.6,28.8,N/A,,Mostly Cloudy,20,2014-01-29 18:35:00
12:55 PM,42.8,35.6,76,30.27,8.0,NNE,23.0,29.9,N/A,,Mostly Cloudy,20,2014-01-29 18:55:00
1:15 PM,42.8,35.6,76,30.27,8.0,North,18.4,26.5,N/A,,Mostly Cloudy,10,2014-01-29 19:15:00
1:35 PM,42.8,33.8,70,30.26,9.0,North,16.1,26.5,N/A,,Mostly Cloudy,10,2014-01-29 19:35:00
1:55 PM,42.8,33.8,70,30.26,10.0,North,19.6,28.8,N/A,,Mostly Cloudy,10,2014-01-29 19:55:00
2:15 PM,42.8,33.8,70,30.25,9.0,NNE,25.3,31.1,N/A,,Mostly Cloudy,20,2014-01-29 20:15:00
2:35 PM,42.8,35.6,76,30.23,10.0,NNE,21.9,29.9,N/A,,Mostly Cloudy,30,2014-01-29 20:35:00
2:55 PM,42.8,33.8,70,30.24,7.0,NE,16.1,27.6,N/A,,Overcast,40,2014-01-29 20:55:00
3:15 PM,41.0,33.8,76,30.25,6.0,NNE,21.9,28.8,N/A,,Haze,20,2014-01-29 21:15:00
3:35 PM,42.8,35.6,76,30.25,8.0,North,16.1,29.9,N/A,,Overcast,10,2014-01-29 21:35:00
3:55 PM,41.0,33.8,76,30.25,8.0,NNE,24.2,-,N/A,,Mostly Cloudy,20,2014-01-29 21:55:00
4:15 PM,41.0,33.8,76,30.24,8.0,NNE,24.2,32.2,N/A,,Mostly Cloudy,20,2014-01-29 22:15:00
4:35 PM,42.8,33.8,70,30.24,10.0,NNE,21.9,32.2,N/A,,Mostly Cloudy,30,2014-01-29 22:35:00
4:55 PM,42.8,33.8,70,30.24,10.0,NNE,23.0,32.2,N/A,,Overcast,20,2014-01-29 22:55:00
5:15 PM,42.8,32.0,66,30.27,10.0,NNE,21.9,29.9,N/A,,Overcast,20,2014-01-29 23:15:00
5:35 PM,42.8,33.8,70,30.27,10.0,NNE,18.4,27.6,N/A,,Overcast,30,2014-01-29 23:35:00
5:55 PM,42.8,32.0,66,30.27,10.0,NNE,18.4,27.6,N/A,,Overcast,30,2014-01-29 23:55:00
6:15 PM,42.8,30.2,61,30.26,10.0,NNE,20.7,27.6,N/A,,Overcast,20,2014-01-30 00:15:00
6:35 PM,42.8,33.8,70,30.27,10.0,NNE,16.1,29.9,N/A,,Mostly Cloudy,30,2014-01-30 00:35:00
6:55 PM,44.6,33.8,66,30.28,10.0,NNE,21.9,-,N/A,,Overcast,30,2014-01-30 00:55:00
7:15 PM,44.6,33.8,66,30.27,10.0,NE,17.3,26.5,N/A,,Overcast,40,2014-01-30 01:15:00
7:35 PM,44.6,33.8,66,30.27,10.0,NE,15.0,28.8,N/A,,Overcast,40,2014-01-30 01:35:00
7:55 PM,44.6,35.6,71,30.27,10.0,NNE,19.6,27.6,N/A,,Overcast,30,2014-01-30 01:55:00
8:15 PM,44.6,33.8,66,30.29,10.0,NNE,18.4,26.5,N/A,,Overcast,20,2014-01-30 02:15:00
8:35 PM,44.6,33.8,66,30.30,10.0,NNE,18.4,-,N/A,,Overcast,30,2014-01-30 02:35:00
8:55 PM,44.6,32.0,61,30.30,10.0,North,17.3,25.3,N/A,,Overcast,10,2014-01-30 02:55:00
9:15 PM,44.6,33.8,66,30.29,10.0,NNE,19.6,27.6,N/A,,Overcast,30,2014-01-30 03:15:00
9:35 PM,44.6,33.8,66,30.30,10.0,NNE,19.6,31.1,N/A,,Overcast,30,2014-01-30 03:35:00
9:55 PM,44.6,35.6,71,30.30,10.0,NNE,20.7,-,N/A,,Overcast,20,2014-01-30 03:55:00
10:15 PM,44.6,33.8,66,30.30,10.0,NNE,18.4,26.5,N/A,,Overcast,30,2014-01-30 04:15:00
10:35 PM,44.6,32.0,61,30.31,10.0,NE,11.5,21.9,N/A,,Mostly Cloudy,40,2014-01-30 04:35:00
10:55 PM,44.6,35.6,71,30.30,10.0,NNE,16.1,25.3,N/A,,Overcast,30,2014-01-30 04:55:00
11:15 PM,44.6,33.8,66,30.28,10.0,NNE,16.1,23.0,N/A,,Overcast,20,2014-01-30 05:15:00
11:35 PM,44.6,33.8,66,30.27,10.0,NE,10.4,21.9,N/A,,Overcast,50,2014-01-30 05:35:00
11:55 PM,44.6,33.8,66,30.26,10.0,NE,13.8,25.3,N/A,,Overcast,40,2014-01-30 05:55:00